CAPE
0 0 0 0 0 0 0 0 0 0 0 7 0 0 0 0 0 0 0 3 5 14 16 1 16 16 18 5 13 8 6 1 1 0 0 0 4 5 1 0 0 6 0 0
0 0 0 0 0 0 0 3 0 0 0 0 0 0 0 0 0 1 1 3 7 7 17 0 3 11 15 2 5 3 2 4 1 21 1 1 1 0 0 0 0 0 0 16
0 0 0 0 0 0 0 0 0 0 1 0 0 2 0 0 0 0 1 3 8 16 10 13 5 16 14 10 11 0 6 2 6 0 0 0 0 1 10 5 0 0 2 0
0 0 0 0 0 0 0 2 0 0 0 0 0 1 1 0 1 3 8 7 8 8 13 0 2 16 13 16 8 17 8 0 7 0 0 0 0 0 0 0 0 1 0 0
0 0 0 0 0 0 3 0 3 0 0 0 0 0 0 1 0 1 1 8 8 13 20 9 10 14 13 15 13 15 8 0 1 0 0 0 0 0 0 0 0 0 0 0
5 0 0 0 0 0 12 2 0 0 1 0 0 0 0 0 4 1 3 10 10 13 13 18 14 11 13 12 8 8 10 9 6 2 9 11 0 0 1 0 0 0 0 0
11 10 0 0 0 0 11 3 11 7 0 0 0 0 0 0 0 1 3 7 8 3 14 15 5 4 0 0 0 3 5 8 13 3 3 3 7 3 1 0 0 0 0 0
12 14 11 0 0 3 12 4 18 20 3 0 0 0 0 0 1 2 3 4 5 5 6 11 5 0 0 0 0 1 5 13 6 6 12 7 5 2 6 9 0 4 6 0
12 9 12 12 4 8 17 21 17 31 1 0 0 2 1 1 4 6 6 5 10 12 18 7 3 2 0 0 0 7 0 2 3 10 7 10 10 4 1 1 0 9 14 12
7 8 8 12 14 15 14 14 17 33 1 1 1 3 1 4 3 2 5 6 5 16 19 10 13 7 4 0 0 4 8 0 0 7 13 9 8 8 2 1 1 2 3 6
4 3 7 7 9 8 10 15 24 29 6 6 3 3 1 1 2 3 3 1 4 8 11 11 9 10 6 4 6 4 7 9 4 9 5 6 4 7 7 5 0 0 0 2
6 2 3 6 5 10 9 13 18 23 25 3 5 2 2 2 2 2 6 3 10 19 13 17 11 14 13 15 13 5 0 2 1 0 7 0 0 0 0 6 8 9 15 12
9 6 4 6 5 7 10 7 11 16 8 0 0 0 0 1 0 1 8 15 5 12 22 32 13 6 4 1 2 2 1 5 15 23 0 0 7 3 0 2 16 18 11 10
8 8 8 7 7 7 0 3 8 7 3 2 0 0 0 0 0 0 7 14 12 16 20 17 15 14 10 6 1 2 1 7 0 2 0 3 7 11 6 5 6 8 2 2
14 15 16 11 13 16 15 14 15 11 1 5 3 0 0 0 0 0 5 14 12 20 20 14 9 11 8 10 7 0 0 2 9 1 6 4 0 1 7 6 4 8 9 6
15 20 21 22 21 20 26 15 5 19 18 6 1 1 0 0 0 0 4 9 5 23 18 9 9 11 5 11 0 0 0 4 10 8 13 13 10 10 10 10 10 7 3 0
8 12 14 15 15 22 22 7 6 13 2 0 5 1 3 5 4 6 2 1 5 12 8 13 7 4 3 18 3 0 1 2 2 18 18 2 19 17 13 0 1 1 0 2
6 5 7 9 5 1 4 9 4 0 0 6 6 0 1 3 1 2 2 6 4 2 2 7 9 12 12 6 0 0 0 19 26 26 26 12 0 0 2 0 0 1 2 5
16 16 19 16 22 22 7 5 17 31 3 18 6 0 5 1 12 15 16 4 3 2 3 6 2 11 11 0 9 33 26 32 17 2 0 0 0 0 0 1 2 0 1 2
21 20 18 0 16 0 0 6 18 15 29 3 1 0 0 1 24 21 23 13 8 24 2 9 3 0 3 7 14 25 30 42 21 0 0 0 0 2 2 4 3 1 1 2
16 21 12 13 1 13 24 8 7 7 14 5 0 1 0 4 2 10 18 20 13 12 9 10 11 5 9 30 34 43 60 48 2 0 0 1 1 0 0 2 0 5 4 1
10 6 14 14 13 10 4 6 5 3 0 0 1 0 1 0 6 9 13 11 8 3 12 9 1 7 15 13 7 18 44 16 0 0 0 0 2 2 5 3 5 3 2 0
1 6 3 1 4 5 4 2 3 3 4 13 8 3 5 5 4 9 7 6 3 5 5 1 5 16 2 5 1 13 19 0 0 1 1 1 5 2 3 2 1 1 1 1
5 2 2 0 1 0 0 0 1 14 7 7 9 12 10 7 4 5 4 1 5 3 1 0 16 1 5 5 15 20 0 0 0 0 5 1 0 1 2 1 1 0 0 1
2 0 0 0 0 0 1 0 2 6 3 6 11 17 14 12 8 8 7 5 0 0 2 29 16 4 4 9 21 22 0 0 0 4 2 1 1 0 0 2 1 0 0 1
4 1 0 0 0 0 4 9 10 22 15 8 8 3 4 0 1 1 1 1 0 8 14 3 4 3 0 0 2 10 2 2 2 3 2 1 1 0 1 1 1 0 0 0
7 7 1 6 9 13 20 11 17 13 12 8 15 16 12 7 10 4 7 4 1 4 0 0 0 0 0 0 1 5 4 3 2 3 2 0 1 1 1 0 1 0 0 0
CIN
-0 -0 -0 -0 -0 -0 -0 -0 -0 -0 -0 -0 -0 -0 -0 -0 -0 -0 -0 -1 -1 -2 -3 -0 -3 -3 -2 -2 -2 -2 -4 -1 -2 -0 -0 -0 -1 -0 -0 -0 -0 -1 -0 -0
-0 -0 -0 -0 -0 -0 -0 -0 -0 -0 -0 -0 -0 -0 -0 -0 -0 -2 -3 -2 -2 -2 -3 -0 -1 -3 -2 -7 -4 -3 -4 -3 -1 -3 -0 -1 -0 -0 -0 -0 -0 -0 -0 -6
-0 -0 -0 -0 -0 -0 -0 -0 -0 -0 -1 -0 -1 -0 -0 -0 -0 -0 -1 -2 -1 -3 -2 -4 -1 -3 -6 -3 -2 -0 -5 -3 -4 -2 -0 -1 -2 -1 -7 -5 -0 -0 -2 -0
-0 -0 -0 -0 -0 -0 -0 -0 -0 -0 -0 -0 -0 -0 -1 -0 -1 -2 -1 -2 -4 -4 -2 -0 -2 -3 -4 -3 -17 -4 -3 -0 -2 -5 -0 -0 -0 -0 -0 -0 -0 -0 -0 -0
-0 -0 -0 -0 -0 -0 -0 -0 -0 -0 -0 -0 -0 -0 -0 -1 -0 -3 -2 -3 -6 -5 -3 -5 -4 -4 -4 -3 -3 -6 -4 -0 -2 -0 -0 -0 -0 -0 -0 -0 -0 -0 -0 -0
-1 -0 -0 -0 -0 -0 -0 -0 -0 -0 -0 -0 -0 -0 -0 -0 -1 -0 -2 -2 -4 -2 -4 -4 -2 -2 -2 -3 -3 -3 -1 -0 -1 -1 -2 -4 -0 -0 -1 -0 -0 -0 -0 -0
-4 -4 -0 -0 -0 -0 -2 -3 -1 -0 -0 -0 -0 -0 -0 -0 -1 -1 -2 -1 -3 -3 -2 -3 -2 -1 -0 -0 -1 -3 -3 -3 -0 -1 -2 -1 -5 -4 -1 -0 -0 -0 -0 -0
-2 -4 -2 -0 -0 -6 -3 -5 -0 -0 -0 -0 -0 -0 -0 -0 -1 -1 -1 -3 -4 -1 -1 -1 -1 -0 -0 -0 -0 -3 -4 -4 -1 -0 -2 -4 -5 -17 -3 -4 -0 -8 -5 -0
-1 -7 -4 -4 -10 -5 -1 -1 -5 -0 -0 -0 -0 -1 -2 -4 -3 -2 -3 -3 -1 -1 -1 -1 -2 -2 -0 -0 -0 -2 -0 -3 -2 -2 -1 -1 -6 -9 -8 -4 -0 -5 -3 -5
-4 -9 -8 -2 -3 -6 -2 -0 -0 -0 -1 -2 -2 -1 -1 -1 -0 -2 -1 -2 -1 -1 -0 -0 -2 -3 -3 -0 -2 -8 -8 -0 -0 -1 -1 -2 -6 -7 -6 -2 -2 -34 -9 -8
-1 -1 -6 -7 -8 -6 -4 -1 -0 -0 -0 -1 -1 -1 -1 -1 -1 -1 -1 -2 -1 -1 -0 -0 -1 -1 -3 -5 -5 -4 -6 -5 -5 -2 -1 -1 -10 -8 -7 -1 -0 -0 -0 -3
-4 -1 -1 -6 -7 -5 -6 -0 -0 -0 -0 -0 -2 -1 -1 -2 -1 -1 -1 -0 -1 -1 -1 -1 -1 -1 -1 -2 -4 -7 -7 -10 -2 -6 -4 -0 -0 -0 -0 -5 -6 -5 -4 -4
-4 -2 -1 -1 -1 -2 -2 -1 -1 -1 -0 -0 -0 -0 -0 -1 -0 -1 -0 -0 -2 -2 -2 -0 -1 -1 -4 -4 -2 -3 -10 -9 -10 -4 -1 -1 -6 -5 -6 -12 -5 -5 -7 -5
-5 -3 -2 -2 -1 -1 -0 -1 -1 -1 -0 -0 -0 -0 -0 -0 -0 -2 -2 -1 -1 -2 -1 -0 -0 -1 -2 -2 -3 -3 -5 -5 -1 -5 -0 -7 -4 -4 -7 -6 -6 -3 -4 -3
-3 -2 -0 -2 -1 -0 -0 -0 -0 -1 -1 -0 -0 -0 -0 -0 -0 -0 -1 -1 -1 -1 -0 -0 -0 -1 -2 -1 -3 -3 -5 -8 -4 -0 -5 -8 -0 -4 -5 -5 -5 -2 -1 -1
-0 -0 -0 -0 -0 -0 -0 -0 -3 -0 -0 -0 -0 -0 -0 -1 -0 -0 -2 -1 -1 -0 -0 -0 -1 -1 -3 -0 -0 -0 -3 -8 -8 -6 -8 -8 -7 -6 -3 -1 -3 -1 -1 -1
-3 -2 -1 -1 -1 -0 -0 -0 -0 -1 -8 -0 -0 -0 -1 -0 -3 -0 -0 -1 -0 -0 -0 -0 -1 -2 -2 -0 -0 -0 -2 -7 -6 -7 -6 -1 -4 -2 -1 -0 -1 -1 -1 -1
-4 -2 -2 -1 -2 -11 -10 -3 -0 -0 -0 -0 -0 -0 -0 -0 -1 -0 -0 -0 -0 -0 -0 -0 -0 -1 -0 -0 -0 -0 -0 -5 -10 -7 -2 -3 -0 -0 -1 -0 -0 -1 -1 -1
-0 -0 -0 -1 -0 -0 -1 -1 -17 -0 -5 -0 -0 -0 -0 -0 -0 -0 -0 -3 -0 -2 -0 -0 -1 -1 -0 -0 -1 -3 -13 -4 -2 -21 -0 -0 -0 -0 -1 -1 -0 -0 -0 -0
-0 -0 -0 -0 -0 -0 -0 -2 -0 -0 -0 -7 -1 -0 -0 -1 -1 -0 -0 -0 -0 -0 -1 -1 -0 -2 -1 -3 -4 -9 -2 -3 -21 -0 -0 -0 -0 -1 -1 -0 -0 -0 -0 -0
-1 -0 -0 -1 -7 -0 -0 -0 -0 -1 -0 -0 -1 -1 -1 -2 -1 -1 -1 -0 -2 -0 -3 -1 -1 -2 -4 -4 -2 -2 -2 -13 -7 -0 -0 -0 -0 -0 -0 -0 -0 -0 -0 -0
-1 -0 -1 -1 -0 -0 -0 -0 -0 -2 -0 -1 -1 -0 -1 -1 -2 -1 -1 -0 -2 -1 -1 -0 -1 -6 -1 -2 -1 -7 -17 -38 -0 -0 -0 -0 -0 -0 -0 -0 -0 -0 -0 -0
-2 -0 -0 -0 -0 -0 -0 -0 -2 -1 -1 -1 -0 -0 -2 -1 -1 -0 -1 -0 -1 -1 -0 -2 -2 -7 -3 -1 -22 -17 -31 -0 -0 -0 -0 -1 -0 -0 -0 -0 -0 -0 -0 -0
-1 -0 -0 -0 -0 -0 -0 -0 -1 -5 -0 -1 -1 -0 -0 -0 -0 -0 -3 -3 -2 -1 -1 -0 -6 -3 -2 -11 -16 -18 -0 -0 -0 -0 -0 -0 -0 -0 -0 -0 -0 -0 -0 -0
-1 -0 -0 -0 -0 -0 -1 -1 -0 -1 -3 -2 -0 -0 -0 -1 -1 -3 -3 -5 -0 -2 -3 -9 -2 -1 -7 -34 -21 -13 -14 -0 -0 -0 -0 -0 -0 -0 -0 -0 -0 -0 -0 -0
-1 -0 -0 -0 -0 -0 -0 -0 -1 -2 -1 -2 -1 -2 -1 -1 -4 -1 -3 -1 -2 -5 -11 -1 -1 -1 -0 -0 -36 -42 -9 -0 -0 -0 -0 -0 -0 -0 -0 -0 -0 -0 -0 -0
-1 -1 -4 -0 -0 -0 -0 -1 -2 -1 -1 -3 -2 -0 -1 -5 -4 -2 -5 -9 -1 -0 -0 -0 -0 -0 -0 -0 -0 -1 -0 -0 -0 -0 -0 -0 -0 -0 -0 -0 -0 -0 -0 -0
Wind_Speed
13 12 12 12 12 13 13 15 16 17 15 17 17 17 16 15 13 13 13 14 14 16 15 16 19 19 25 24 25 24 22 23 33 30 27 23 18 24 25 37 38 48 49 54
13 12 10 10 11 12 14 16 14 16 14 18 17 15 15 13 12 13 13 13 14 12 14 16 14 10 17 10 25 24 23 20 27 25 26 24 27 25 25 29 29 33 41 39
14 12 10 10 10 11 13 16 17 15 16 14 15 16 15 14 11 10 10 9 10 11 13 11 11 9 14 5 3 21 21 23 26 31 28 28 35 34 29 28 38 40 35 36
12 12 10 9 9 10 12 16 14 14 16 14 13 14 14 12 12 11 10 11 10 11 13 11 10 7 5 3 12 10 18 25 30 32 35 35 38 39 40 43 42 45 46 48
11 11 10 8 7 9 11 14 15 13 13 12 12 14 14 12 11 11 11 8 9 10 10 9 10 9 6 3 3 4 11 16 30 35 35 36 39 40 41 43 45 45 49 51
10 10 10 7 5 6 12 12 13 14 14 12 11 10 11 12 13 10 9 9 9 9 8 9 6 5 6 7 8 8 5 1 18 31 26 31 38 36 35 38 39 43 51 50
11 8 8 8 4 3 13 9 12 13 15 9 8 10 10 9 8 7 7 7 6 7 9 7 7 6 5 6 7 8 8 7 4 28 31 30 23 22 28 33 36 38 41 41
11 10 8 8 7 2 9 10 10 12 14 12 9 8 7 8 6 6 5 8 10 11 10 12 14 14 14 14 9 8 2 4 5 18 26 32 33 25 21 28 33 31 33 34
12 11 10 9 7 4 6 8 8 12 16 15 10 9 8 10 10 11 7 10 11 12 10 11 12 14 14 16 15 12 8 3 2 10 25 26 17 21 24 26 32 21 23 27
13 12 12 9 8 7 5 11 4 10 13 12 8 9 10 11 11 13 10 13 14 12 11 9 10 10 8 11 13 13 12 9 3 5 15 26 24 27 30 24 28 33 32 35
14 13 12 10 9 7 8 10 7 7 16 13 11 7 6 8 6 9 10 16 11 11 12 12 12 12 11 10 11 13 11 6 3 7 6 26 26 23 24 30 36 39 42 45
14 12 11 11 11 9 7 12 9 8 12 14 18 14 8 8 6 6 6 5 13 12 13 13 13 12 14 11 13 11 9 6 8 14 16 36 39 40 39 39 38 38 38 39
14 13 11 10 10 8 6 9 12 13 19 24 12 8 7 7 6 4 7 5 5 7 10 14 11 10 11 13 14 15 11 8 8 20 20 31 40 40 42 40 39 39 40 40
14 12 10 9 9 8 6 8 9 12 19 24 21 16 15 9 7 6 7 7 6 8 12 11 10 9 10 11 15 13 11 10 9 25 27 30 37 40 40 42 43 42 41 39
14 13 11 9 8 7 7 9 10 8 14 22 25 29 20 12 10 5 3 4 5 9 11 10 9 10 11 10 14 12 8 8 8 11 20 29 35 41 43 44 44 44 44 45
14 13 12 11 9 7 12 17 11 8 12 21 24 21 21 17 12 6 1 3 6 7 10 11 12 9 9 14 15 12 11 11 8 15 14 31 36 43 43 43 43 46 47 47
12 10 9 8 7 7 14 18 16 8 9 19 23 20 16 13 10 13 11 6 9 8 11 11 11 11 11 12 14 11 15 11 9 13 26 36 36 38 42 44 43 43 45 44
12 11 10 9 9 16 17 12 11 10 12 15 20 19 17 9 13 13 11 11 10 11 11 14 13 12 8 11 9 12 16 22 24 27 25 30 33 37 39 41 42 44 44 43
9 7 4 6 13 14 15 11 5 10 15 18 16 16 18 13 14 12 11 11 12 12 11 11 11 9 9 9 13 17 26 28 33 33 31 32 36 36 36 39 41 42 43 42
7 6 13 17 13 5 8 12 11 13 16 17 18 14 14 14 13 13 13 12 13 15 12 10 10 10 8 8 10 20 25 27 30 34 36 35 35 36 39 39 39 38 39 40
11 14 16 10 3 9 15 15 13 13 19 17 17 12 11 12 14 15 14 15 14 17 15 11 15 15 13 11 14 19 23 26 29 30 31 27 28 36 39 39 34 35 35 31
12 9 7 8 15 16 17 16 14 15 18 12 10 11 7 10 12 12 13 14 13 16 12 14 16 15 12 13 17 20 24 27 29 31 32 29 32 33 36 34 32 33 27 28
7 14 15 16 16 20 19 18 16 16 14 11 10 9 9 12 10 12 13 14 15 14 14 15 14 14 10 14 19 22 25 27 31 33 31 28 33 32 34 31 33 28 24 24
16 16 18 19 18 19 17 16 16 16 13 7 7 9 11 12 10 13 16 14 14 16 16 15 15 14 16 18 21 25 28 30 33 34 33 30 32 32 30 30 30 25 21 20
17 16 21 20 19 18 17 18 17 14 14 11 11 13 13 13 14 13 14 16 17 15 16 17 16 18 20 22 25 27 29 30 33 34 34 31 30 30 29 28 28 24 21 20
19 20 20 19 19 19 18 17 17 14 14 13 14 17 17 17 16 15 16 19 20 20 15 15 19 21 23 25 27 29 30 31 33 34 33 30 29 30 28 27 26 24 21 19
21 21 19 19 19 18 15 15 15 13 13 15 16 17 17 16 17 17 18 21 20 17 18 20 22 25 28 29 31 31 31 34 34 34 33 30 30 29 28 26 25 24 22 20
Wind_Direction
360 14 29 39 49 50 48 38 32 43 56 42 48 45 48 51 55 56 53 52 51 51 47 57 57 56 23 329 311 306 300 277 264 268 272 272 270 265 262 254 262 253 257 256
350 3 21 37 47 55 40 25 35 44 57 35 40 47 47 52 55 55 57 53 51 51 50 55 61 60 60 79 307 312 300 288 271 263 267 273 266 272 269 264 267 263 257 252
339 352 14 31 49 54 51 21 19 34 40 49 43 42 42 46 59 56 60 55 53 51 46 56 48 52 62 57 85 342 304 291 279 268 277 278 267 266 267 266 259 261 264 266
330 342 2 25 46 53 50 24 19 31 27 34 44 45 45 42 48 58 57 58 55 44 41 34 44 28 14 45 55 86 0 301 287 284 283 282 275 271 269 266 266 263 264 264
318 331 344 12 43 50 34 24 15 22 22 33 38 39 39 46 48 50 51 51 41 44 32 17 5 7 10 358 210 72 36 0 297 286 285 282 276 273 273 270 268 269 266 265
305 316 331 356 37 54 14 22 21 10 8 25 27 31 36 42 44 46 46 42 36 23 12 14 352 314 288 262 252 239 230 282 348 294 302 296 281 278 278 273 272 272 268 270
298 302 316 336 15 87 1 29 19 7 356 10 20 25 30 30 35 21 27 22 9 8 25 356 356 335 295 267 247 230 228 218 353 309 285 292 300 303 290 283 280 281 279 277
287 298 305 319 337 21 353 11 14 6 350 352 0 6 11 10 14 8 5 15 15 19 21 20 20 22 30 29 37 46 142 193 356 324 305 288 287 304 308 297 291 292 286 284
274 286 294 309 325 349 345 354 10 5 351 350 356 357 358 1 8 6 6 16 34 27 22 17 17 17 11 25 24 29 39 64 236 331 309 306 326 325 323 311 297 317 302 294
263 274 286 294 310 325 335 340 6 354 345 332 335 347 355 2 7 3 7 15 16 25 27 17 3 355 357 5 13 17 17 17 233 234 303 305 307 306 299 304 299 304 308 300
260 268 273 282 295 309 319 330 349 340 335 325 319 326 335 339 344 350 17 9 21 25 25 21 19 17 19 10 2 2 353 344 296 349 312 300 304 316 315 295 278 280 283 285
257 263 270 278 285 297 310 314 330 334 327 329 333 333 315 265 254 326 351 18 20 24 20 21 19 9 6 357 337 338 325 305 269 236 229 262 274 274 273 277 277 276 273 273
251 259 265 275 283 291 295 318 335 338 329 324 310 314 303 238 244 270 275 272 299 323 346 349 353 348 352 343 344 339 331 328 292 242 235 245 266 274 275 274 278 279 278 276
249 252 257 267 277 288 296 307 327 330 333 328 335 343 347 0 338 277 247 258 292 334 345 334 338 330 351 332 327 315 313 309 301 252 247 250 264 284 291 279 282 278 277 275
247 249 255 263 273 285 303 314 322 330 328 325 323 317 324 318 319 313 282 266 282 313 330 330 319 323 327 313 319 302 318 313 306 266 246 252 261 295 290 280 284 290 295 288
245 249 256 262 267 281 307 313 310 305 326 326 325 333 325 330 345 3 302 295 317 318 334 332 331 294 312 342 332 327 332 335 315 255 256 257 264 299 299 300 298 298 299 302
237 247 257 267 272 275 302 316 333 355 336 326 326 331 342 350 12 6 2 11 355 344 336 320 316 322 342 329 304 289 332 306 323 331 331 313 314 311 303 302 304 306 307 309
240 250 259 271 284 291 294 313 348 357 330 327 324 326 331 347 345 352 1 353 347 343 336 340 332 339 340 339 330 346 347 341 339 336 339 332 326 320 313 308 306 302 307 313
223 233 250 288 288 294 304 310 308 326 318 319 321 322 328 345 341 352 358 355 345 344 331 334 354 346 344 347 348 347 338 334 324 329 333 332 324 323 325 318 306 301 303 310
190 212 277 283 290 346 350 327 313 304 306 308 307 307 313 334 337 342 349 355 349 346 340 359 341 317 291 299 325 339 338 337 333 327 327 335 331 324 321 320 303 295 296 304
238 266 278 303 344 309 307 309 308 307 309 310 309 289 299 318 322 332 345 348 352 346 350 351 351 349 360 9 360 350 345 343 340 341 342 350 347 331 323 320 295 297 298 291
255 277 293 295 295 297 296 297 308 304 306 315 320 329 321 320 335 335 343 343 349 340 359 347 345 351 2 5 354 348 346 342 340 339 341 349 343 342 331 302 296 298 283 298
256 278 279 287 288 282 287 287 297 303 306 314 327 333 340 335 334 339 341 338 335 348 342 340 341 345 4 356 347 344 344 343 339 333 343 350 343 348 319 301 307 296 288 306
270 272 272 275 284 286 284 287 300 303 312 316 325 327 329 329 330 331 333 334 337 333 331 332 346 352 348 347 340 335 332 336 335 325 331 342 343 344 309 311 312 299 295 301
271 275 276 275 281 289 294 290 297 304 306 313 321 318 316 318 324 333 332 334 326 330 328 333 334 340 336 335 332 329 329 333 333 329 326 336 345 346 309 312 316 310 302 316
275 276 279 284 281 280 285 291 290 298 306 311 311 312 316 312 318 319 317 317 316 324 335 333 329 329 329 330 327 325 325 327 327 323 325 333 339 336 304 309 318 320 312 309
273 275 275 283 288 289 288 288 295 306 302 297 305 306 305 322 318 312 320 312 322 325 323 325 323 322 323 322 319 320 320 318 319 316 318 322 321 320 311 306 312 320 320 312